Simultaneous Nadir Overpasses (SNOs) Predictions

Prediction of SNOs between AQUA and NPP Satellite Orbit:

Table of predicted SNOs for the next 14.0 days since TLE Epoch: 9/29/2017
Index Date (AQUA) Time (AQUA) Lat,Lon (AQUA) SZA (AQUA ) Date (NPP) Time (NPP) Lat,Lon (NPP) SZA (NPP ) Distance(km) Time Diff (sec)
1 10/02/2017 05:32:18 75.04, -26.77 101.26 10/02/2017 05:31:45 75.03, -26.82 101.30 1.69 33
2 10/02/2017 06:21:21 -76.24, 144.36 80.05 10/02/2017 06:22:05 -76.23, 144.30 80.07 1.60 44
3 10/04/2017 21:48:33 75.76, 91.13 101.44 10/04/2017 21:48:25 75.76, 91.17 101.43 1.16 8
4 10/04/2017 22:37:39 -76.79, -97.89 79.70 10/04/2017 22:38:48 -76.79, -97.85 79.78 1.24 69
5 10/07/2017 13:15:58 -74.70, 36.47 76.49 10/07/2017 13:14:59 -74.69, 36.44 76.42 1.00 59
6 10/07/2017 14:04:57 76.02,-152.21 102.11 10/07/2017 14:05:15 76.02,-152.23 102.10 0.76 18
7 10/10/2017 05:32:20 -75.06, 153.28 75.92 10/10/2017 05:31:47 -75.05, 153.19 75.86 2.67 33
8 10/10/2017 06:21:20 76.31, -35.40 102.74 10/10/2017 06:22:04 76.31, -35.46 102.72 1.72 44
9 10/12/2017 21:48:30 -75.95, -88.32 75.93 10/12/2017 21:48:22 -75.95, -88.23 75.94 2.41 8




NCC Satellite Simultaneous Nadir Overpasses (SNOs) Prediction Service
